Hazlehurst, GA

7:48 AM EDT on October 15, 2019 (GMT -0400)
Hazlehurst

Weather History for KAZE - August, 2019

Change the Weather History Date:

Monday, August 19, 2019

  Actual Average Record
Temperature  
Mean Temperature 82 °F -  
Max Temperature 87 °F 101 °F 97 °F (2017)
Min Temperature 76 °F 67 °F 73 °F (2016)
Cooling Degree Days 16    
Growing Degree Days 32 (Base 50)    
Moisture  
Dew Point 72 °F    
Average Humidity 77    
Maximum Humidity 89    
Minimum Humidity 58    
Precipitation  
Precipitation 0.00 in - - ()
Sea Level Pressure  
Sea Level Pressure 30.05 in    
Wind  
Wind Speed 3 mph (South)    
Max Wind Speed 9 mph    
Max Gust Speed -    
Visibility 9 miles    
Events Rain , Thunderstorm    
Averages and records for this station are not official NWS values.
T = Trace of Precipitation, MM = Missing Value Source: NWS Daily Summary

Daily Weather History Graph

Daily Weather History Graph

Search for Another Location

Airport or City:

Astronomy

Aug. 19, 2019 Rise Set
Actual Time 6:57 AM EDT 8:10 PM EDT
Civil Twilight 6:32 AM EDT 8:35 PM EDT
Nautical Twilight 6:01 AM EDT 9:05 PM EDT
Astronomical Twilight 5:30 AM EDT 9:37 PM EDT
Moon 10:44 PM EDT (8/19) 10:26 AM EDT (8/19)
Length of Visible Light 14h 03m
Length of Day
13h 12m
Waning Gibbous, 85% of the Moon is Illuminated
Aug 19
Waning Gibbous
Aug 23
Last Quarter
Aug 30
New
Sep 5
First Quarter
Sep 14
Full

Hourly Weather History & Observations

Time (EDT) Temp. Heat Index Dew Point Humidity Pressure Visibility Wind Dir Wind Speed Gust Speed Precip Events Conditions
12:10 AM 77.4 °F - 71.6 °F 82% 30.03 in 10.0 mi Calm Calm - N/A   Clear
12:30 AM 77.2 °F - 71.6 °F 83% 30.04 in 10.0 mi South 3.5 mph - N/A   Clear
12:50 AM 77.4 °F - 71.6 °F 82% 30.04 in 10.0 mi South 3.5 mph - N/A   Mostly Cloudy
1:10 AM 77.4 °F - 71.6 °F 82% 30.03 in 10.0 mi South 3.5 mph - N/A   Overcast
1:30 AM 77.5 °F - 71.6 °F 82% 30.03 in 10.0 mi South 4.6 mph - N/A   Overcast
1:50 AM 77.5 °F - 71.6 °F 82% 30.03 in 10.0 mi South 4.6 mph - N/A   Overcast
2:10 AM 77.5 °F - 71.6 °F 82% 30.03 in 10.0 mi South 3.5 mph - N/A   Overcast
2:30 AM 77.4 °F - 71.6 °F 82% 30.03 in 10.0 mi Calm Calm - N/A   Overcast
2:50 AM 77.4 °F - 71.6 °F 82% 30.03 in 10.0 mi South 3.5 mph - N/A   Overcast
3:10 AM 77.4 °F - 71.6 °F 82% 30.02 in 10.0 mi Calm Calm - N/A   Overcast
3:30 AM 77.4 °F - 71.6 °F 82% 30.02 in 10.0 mi Calm Calm - N/A   Overcast
3:50 AM 77.4 °F - 71.6 °F 82% 30.02 in 10.0 mi SSE 3.5 mph - N/A   Overcast
4:10 AM 77.2 °F - 71.6 °F 83% 30.02 in 10.0 mi Calm Calm - N/A   Overcast
4:30 AM 77.2 °F - 71.6 °F 83% 30.02 in 10.0 mi South 3.5 mph - N/A   Overcast
4:50 AM 77.2 °F - 71.6 °F 83% 30.03 in 10.0 mi South 4.6 mph - N/A   Overcast
5:10 AM 77.2 °F - 71.8 °F 83% 30.03 in 10.0 mi Calm Calm - N/A   Overcast
5:30 AM 77.0 °F - 71.8 °F 84% 30.03 in 10.0 mi Calm Calm - N/A   Overcast
5:50 AM 77.0 °F - 72.0 °F 84% 30.03 in 10.0 mi Calm Calm - N/A   Overcast
6:10 AM 77.0 °F - 72.0 °F 84% 30.03 in 10.0 mi Calm Calm - N/A   Overcast
6:30 AM 77.0 °F - 72.1 °F 85% 30.04 in 10.0 mi Calm Calm - N/A   Overcast
6:50 AM 76.8 °F - 72.3 °F 86% 30.04 in 7.0 mi Calm Calm - N/A   Overcast
7:10 AM 76.6 °F - 72.5 °F 87% 30.04 in 7.0 mi Calm Calm - N/A   Overcast
7:30 AM 77.0 °F - 72.7 °F 86% 30.05 in 10.0 mi Calm Calm - N/A   Overcast
7:50 AM 77.0 °F - 72.7 °F 86% 30.05 in 7.0 mi Calm Calm - N/A   Overcast
8:10 AM 77.2 °F - 72.9 °F 86% 30.06 in 5.0 mi Calm Calm - N/A   Overcast
8:30 AM 77.0 °F - 73.2 °F 88% 30.06 in 4.0 mi Calm Calm - N/A   Overcast
8:50 AM 77.0 °F - 73.4 °F 89% 30.07 in 3.0 mi SE 3.5 mph - N/A   Overcast
9:10 AM 77.0 °F - 73.4 °F 89% 30.07 in 2.5 mi SSE 4.6 mph - N/A   Overcast
9:30 AM 77.4 °F - 73.4 °F 88% 30.07 in 7.0 mi SSE 4.6 mph - N/A   Overcast
9:50 AM 78.3 °F - 72.9 °F 83% 30.07 in 10.0 mi Calm Calm - N/A   Overcast
10:10 AM 79.0 °F - 72.7 °F 81% 30.08 in 10.0 mi Calm Calm - N/A   Overcast
10:30 AM 78.8 °F - 72.5 °F 81% 30.08 in 10.0 mi Calm Calm - N/A   Overcast
10:50 AM 79.5 °F - 72.5 °F 79% 30.08 in 10.0 mi Calm Calm - N/A   Overcast
11:10 AM 81.0 °F 85.6 °F 72.7 °F 76% 30.09 in 10.0 mi SSW 3.5 mph - N/A   Overcast
11:30 AM 80.2 °F 84.7 °F 73.6 °F 80% 30.09 in 5.0 mi Calm Calm - N/A Rain Light Rain
11:50 AM 82.6 °F 88.6 °F 73.6 °F 74% 30.08 in 10.0 mi Calm Calm - N/A   Mostly Cloudy
12:10 PM 83.3 °F 89.0 °F 72.5 °F 70% 30.07 in 10.0 mi SE 5.8 mph - N/A   Scattered Clouds
12:30 PM 84.0 °F 89.6 °F 72.1 °F 67% 30.08 in 10.0 mi South 5.8 mph - N/A   Mostly Cloudy
12:50 PM 84.2 °F 89.3 °F 71.4 °F 65% 30.08 in 10.0 mi South 5.8 mph - N/A   Mostly Cloudy
1:10 PM 84.6 °F 90.0 °F 71.8 °F 65% 30.08 in 10.0 mi South 6.9 mph - N/A   Mostly Cloudy
1:30 PM 84.6 °F 90.3 °F 72.0 °F 66% 30.08 in 10.0 mi SSW 4.6 mph - N/A   Mostly Cloudy
1:50 PM 85.6 °F 91.5 °F 71.8 °F 63% 30.07 in 10.0 mi South 8.1 mph - N/A   Mostly Cloudy
2:10 PM 86.2 °F 91.8 °F 71.2 °F 61% 30.07 in 10.0 mi South 6.9 mph - N/A   Scattered Clouds
2:30 PM 84.7 °F 90.0 °F 71.2 °F 64% 30.06 in 10.0 mi South 4.6 mph - N/A   Scattered Clouds
2:50 PM 87.1 °F 92.8 °F 71.4 °F 59% 30.05 in 10.0 mi SSE 4.6 mph - N/A   Scattered Clouds
3:10 PM 85.6 °F 91.8 °F 72.1 °F 64% 30.04 in 10.0 mi SSW 6.9 mph - N/A   Mostly Cloudy
3:30 PM 86.0 °F 91.8 °F 71.4 °F 62% 30.04 in 10.0 mi South 4.6 mph - N/A   Mostly Cloudy
3:50 PM 86.0 °F 91.5 °F 71.2 °F 61% 30.03 in 10.0 mi SSW 8.1 mph - N/A   Scattered Clouds
4:10 PM 86.9 °F 92.1 °F 70.7 °F 58% 30.02 in 10.0 mi South 9.2 mph - N/A   Mostly Cloudy
4:30 PM 84.9 °F 90.4 °F 71.4 °F 64% 30.02 in 10.0 mi South 8.1 mph - N/A   Mostly Cloudy
4:50 PM 81.5 °F 86.7 °F 73.4 °F 76% 30.02 in 10.0 mi South 3.5 mph - N/A Rain Rain
5:10 PM 81.5 °F 86.9 °F 73.6 °F 77% 30.01 in 10.0 mi South 3.5 mph - N/A   Scattered Clouds
5:30 PM 82.4 °F 88.2 °F 73.4 °F 74% 30.01 in 10.0 mi SSW 6.9 mph - N/A   Scattered Clouds
5:50 PM 82.2 °F 87.6 °F 72.7 °F 73% 30.01 in 10.0 mi South 5.8 mph - N/A   Scattered Clouds
6:10 PM 82.4 °F 87.4 °F 72.1 °F 71% 30.00 in 10.0 mi SSW 5.8 mph - N/A   Clear
6:30 PM 82.4 °F 87.7 °F 72.7 °F 72% 30.01 in 10.0 mi Calm Calm - N/A   Clear
6:50 PM 82.2 °F 87.1 °F 72.0 °F 71% 30.02 in 10.0 mi South 3.5 mph - N/A   Mostly Cloudy
7:10 PM 81.9 °F 86.8 °F 72.5 °F 73% 30.03 in 10.0 mi SSE 3.5 mph - N/A   Mostly Cloudy
7:30 PM 81.3 °F 86.1 °F 72.7 °F 75% 30.03 in 10.0 mi Calm Calm - N/A   Mostly Cloudy
7:50 PM 81.1 °F 86.0 °F 72.9 °F 76% 30.04 in 10.0 mi Calm Calm - N/A   Overcast
8:10 PM 80.6 °F 85.0 °F 72.9 °F 77% 30.05 in 10.0 mi South 3.5 mph - N/A   Overcast
8:30 PM 80.6 °F 85.0 °F 72.7 °F 77% 30.05 in 10.0 mi Calm Calm - N/A   Mostly Cloudy
8:50 PM 80.6 °F 84.9 °F 72.5 °F 76% 30.05 in 10.0 mi Calm Calm - N/A   Overcast
9:10 PM 80.4 °F 84.7 °F 72.5 °F 77% 30.07 in 10.0 mi Calm Calm - N/A   Overcast
9:30 PM 80.1 °F 84.1 °F 72.5 °F 78% 30.07 in 10.0 mi South 4.6 mph - N/A   Mostly Cloudy
9:50 PM 79.9 °F - 72.5 °F 78% 30.08 in 10.0 mi South 4.6 mph - N/A   Scattered Clouds
10:10 PM 79.7 °F - 72.5 °F 79% 30.08 in 10.0 mi South 3.5 mph - N/A   Scattered Clouds
10:30 PM 79.7 °F - 72.5 °F 79% 30.09 in 10.0 mi South 3.5 mph - N/A   Mostly Cloudy
10:50 PM 79.2 °F - 72.5 °F 80% 30.08 in 10.0 mi South 3.5 mph - N/A Thunderstorm Mostly Cloudy
11:10 PM 78.3 °F - 72.9 °F 83% 30.09 in 5.0 mi Calm Calm - N/A Rain Rain
11:30 PM 77.4 °F - 72.9 °F 86% 30.10 in 5.0 mi South 3.5 mph - N/A Rain , Thunderstorm Rain
11:50 PM 77.2 °F - 73.4 °F 88% 30.10 in 5.0 mi South 5.8 mph - N/A Rain , Thunderstorm Rain